Temp
20 19 19 18 17 15 15 14 11 11 11 10 10 10 11 11 11 11 11 11 11 11 12 12 12 12 12 11 11 11 11 11 11 11 10 10 10 10 10 10 10 10 10
18 19 18 18 17 17 15 13 12 10 10 10 9 10 9 10 11 10 10 10 10 11 11 11 12 12 12 11 11 11 11 11 11 11 11 10 9 10 10 10 10 10 10
19 18 18 18 17 16 15 14 12 11 10 10 9 9 10 9 9 10 10 10 10 10 10 10 10 11 12 11 11 11 11 11 11 11 11 10 10 10 10 10 10 10 10
20 20 18 17 17 17 15 14 12 11 10 10 9 9 10 10 9 10 10 10 10 10 9 10 10 11 11 11 11 11 11 11 11 11 11 11 11 10 10 10 10 10 10
21 20 20 19 17 17 15 14 13 12 10 10 10 9 10 9 10 9 9 9 9 9 9 9 10 10 10 11 11 11 11 11 12 11 11 11 11 11 11 11 11 10 10
20 22 18 18 17 16 15 14 13 12 11 10 10 11 10 10 9 9 9 9 9 9 9 10 10 9 10 10 10 10 10 10 12 12 12 11 11 11 11 11 11 11 11
18 17 17 17 16 16 15 14 13 12 12 10 10 10 10 10 10 10 9 9 9 9 9 10 10 9 9 9 9 10 10 10 12 12 12 11 11 11 11 11 11 11 11
18 18 19 19 18 17 16 14 14 12 12 11 9 10 10 10 10 10 10 10 9 10 10 9 9 9 9 9 10 10 10 11 11 11 12 11 11 11 10 10 10 10 10
18 18 19 19 19 17 17 16 15 14 13 12 9 9 9 9 10 10 10 11 10 10 10 10 10 9 10 10 11 11 11 11 11 11 11 11 11 12 11 9 9 9 8
16 17 20 20 19 18 17 15 15 15 14 13 11 9 9 9 9 9 9 10 10 10 10 10 10 10 10 11 11 11 11 10 10 10 10 10 10 11 10 9 9 9 9
17 16 18 19 18 17 17 16 15 14 13 13 12 10 9 9 9 8 9 10 10 10 10 10 10 10 10 11 11 10 10 10 10 10 10 11 11 11 10 10 10 10 9
18 17 15 14 14 15 17 17 16 15 15 14 13 12 10 9 8 9 8 9 9 10 10 10 10 10 10 10 10 10 10 10 10 10 10 10 10 10 10 10 10 10 10
11 13 14 13 12 12 12 12 12 13 14 14 14 13 12 11 9 9 8 8 9 9 9 10 9 10 10 10 10 10 10 10 10 10 10 10 10 10 10 10 10 10 10
10 10 11 11 11 12 12 12 11 11 11 12 12 13 13 14 13 11 9 8 8 8 8 8 9 9 9 9 9 10 10 10 10 10 10 10 10 10 10 10 10 10 10
8 8 8 10 11 12 11 11 12 11 11 11 11 11 12 12 12 11 11 11 10 8 8 8 8 8 8 8 8 8 9 9 9 9 9 9 10 10 10 10 10 10 9
8 8 7 9 10 10 11 11 12 12 12 12 10 10 9 10 10 11 12 12 11 10 10 8 8 8 8 9 8 8 9 8 8 8 9 9 9 9 10 10 9 9 8
4 5 5 6 6 7 9 9 9 10 11 11 11 10 10 10 9 9 10 10 11 11 11 10 10 9 9 9 9 9 9 8 8 8 8 8 8 8 8 9 8 8 8
6 5 5 6 6 7 7 8 9 10 10 10 10 10 10 9 9 9 9 9 10 10 11 11 11 10 11 11 10 9 9 9 9 9 9 9 9 9 9 9 9 9 9
4 4 5 5 7 8 7 8 9 8 9 9 8 8 9 9 10 10 10 10 9 9 10 10 10 10 10 10 10 10 10 10 10 9 9 9 9 9 9 9 9 9 9
2 3 4 5 7 7 7 7 8 7 7 6 6 6 6 5 6 8 8 9 10 9 10 10 9 10 10 10 10 10 10 10 10 9 9 9 9 9 9 9 9 8 8
3 2 3 4 3 3 4 5 5 5 4 4 4 5 5 4 4 4 5 6 8 8 9 10 9 8 9 9 9 10 10 10 8 9 8 7 7 8 8 7 6 5 3
-0 -1 -1 -1 -1 -0 1 1 2 1 2 2 3 3 3 2 2 3 3 4 5 5 5 4 5 4 3 3 3 8 6 7 8 6 2 -0 -1 0 1 2 1 -2 -3
-3 -2 -2 -1 -1 -1 0 0 1 1 1 1 1 1 1 0 1 2 1 1 1 1 0 0 -0 -0 0 -1 -2 -3 1 0 -0 -3 -3 -1 -2 -4 -4 -4 -4 -4 -4
-4 -4 -3 -3 -4 -4 -3 -4 -3 -2 -1 -1 -0 -0 0 -0 -0 -1 -1 -2 -2 -2 -3 -3 -3 -3 -3 -2 -2 -2 -3 -4 -2 -4 -4 -4 -4 -2 -4 -5 -5 -5 -5
-6 -5 -5 -5 -6 -5 -4 -4 -4 -4 -3 -3 -3 -3 -3 -2 -3 -3 -4 -5 -5 -5 -5 -5 -5 -5 -6 -6 -5 -4 -5 -5 -5 -5 -5 -5 -5 -6 -6 -6 -6 -7 -7
-6 -5 -6 -5 -6 -5 -5 -5 -4 -4 -4 -4 -5 -5 -5 -5 -5 -5 -6 -7 -6 -7 -7 -7 -6 -7 -7 -7 -6 -6 -5 -5 -6 -5 -6 -7 -7 -8 -9 -9 -9 -10 -10
Height
1418 1424 1427 1430 1433 1436 1437 1439 1443 1448 1450 1452 1453 1456 1459 1464 1467 1470 1473 1477 1480 1487 1493 1499 1505 1509 1512 1517 1524 1530 1535 1539 1543 1547 1550 1554 1558 1559 1561 1563 1564 1565 1566
1415 1420 1423 1426 1428 1431 1433 1436 1439 1444 1448 1450 1452 1455 1459 1463 1467 1470 1472 1476 1480 1485 1492 1497 1502 1507 1512 1518 1522 1527 1530 1536 1540 1542 1546 1551 1556 1556 1559 1561 1562 1563 1564
1407 1414 1417 1420 1424 1427 1429 1432 1435 1439 1445 1449 1451 1454 1458 1462 1465 1467 1469 1470 1476 1483 1489 1496 1502 1506 1511 1515 1519 1524 1528 1531 1537 1540 1541 1547 1549 1552 1556 1557 1558 1560 1561
1400 1405 1411 1415 1419 1422 1427 1430 1433 1436 1442 1446 1449 1451 1453 1457 1460 1463 1468 1471 1476 1482 1488 1494 1499 1504 1509 1513 1517 1521 1526 1530 1531 1536 1540 1543 1544 1546 1553 1556 1554 1555 1556
1391 1397 1402 1406 1414 1419 1423 1427 1430 1433 1438 1443 1447 1449 1451 1454 1457 1462 1466 1472 1476 1480 1486 1491 1496 1501 1505 1509 1513 1518 1522 1526 1528 1532 1535 1538 1542 1542 1548 1548 1549 1550 1550
1385 1390 1398 1405 1411 1417 1421 1425 1427 1430 1433 1439 1443 1446 1448 1451 1454 1458 1463 1468 1472 1478 1484 1489 1493 1498 1501 1505 1509 1514 1519 1523 1527 1529 1531 1533 1535 1539 1542 1543 1544 1545 1545
1379 1386 1392 1399 1407 1411 1417 1421 1424 1427 1429 1434 1440 1443 1446 1449 1452 1455 1458 1462 1467 1474 1480 1485 1489 1494 1498 1503 1507 1511 1515 1521 1523 1526 1528 1531 1532 1535 1538 1539 1540 1540 1541
1371 1379 1385 1394 1400 1406 1412 1417 1420 1424 1426 1430 1435 1440 1444 1446 1449 1453 1456 1459 1463 1469 1476 1481 1486 1489 1495 1500 1505 1507 1511 1515 1518 1521 1523 1525 1527 1530 1532 1533 1535 1534 1534
1367 1374 1384 1391 1396 1402 1407 1412 1416 1420 1424 1427 1431 1436 1440 1443 1445 1450 1454 1458 1463 1467 1471 1476 1482 1487 1492 1496 1499 1502 1505 1509 1512 1515 1517 1520 1521 1522 1526 1527 1527 1529 1528
1370 1373 1381 1387 1392 1399 1406 1411 1415 1418 1422 1425 1428 1433 1437 1441 1445 1448 1451 1456 1461 1465 1468 1473 1477 1481 1486 1489 1492 1495 1498 1502 1504 1507 1510 1511 1513 1515 1518 1519 1520 1521 1520
1372 1376 1381 1386 1392 1399 1405 1410 1414 1417 1420 1423 1425 1428 1432 1437 1442 1445 1449 1453 1458 1462 1465 1468 1471 1474 1477 1481 1484 1487 1491 1493 1496 1499 1501 1502 1504 1505 1508 1508 1510 1510 1511
1371 1381 1388 1393 1398 1401 1404 1407 1412 1416 1419 1422 1424 1426 1428 1433 1436 1440 1445 1449 1452 1456 1458 1462 1465 1468 1471 1474 1476 1479 1482 1484 1486 1489 1492 1492 1495 1496 1498 1499 1500 1500 1501
1382 1385 1391 1397 1404 1408 1412 1415 1418 1421 1421 1421 1422 1424 1426 1428 1430 1434 1439 1442 1446 1449 1452 1455 1456 1459 1462 1466 1468 1471 1474 1475 1477 1480 1481 1481 1485 1485 1487 1488 1489 1488 1489
1394 1396 1398 1401 1404 1408 1411 1415 1419 1421 1422 1424 1425 1425 1424 1424 1426 1429 1431 1435 1438 1442 1443 1446 1449 1451 1454 1456 1458 1461 1463 1465 1466 1469 1469 1470 1472 1472 1474 1476 1477 1477 1477
1401 1406 1408 1407 1407 1409 1412 1414 1416 1418 1419 1420 1421 1423 1426 1426 1428 1430 1430 1430 1430 1432 1436 1438 1440 1442 1443 1444 1447 1450 1452 1453 1454 1456 1457 1457 1459 1461 1462 1464 1464 1465 1465
1407 1410 1416 1411 1411 1412 1413 1414 1416 1416 1417 1417 1417 1419 1420 1421 1423 1424 1425 1425 1426 1426 1426 1427 1429 1431 1431 1432 1436 1441 1442 1443 1444 1443 1444 1445 1447 1448 1450 1452 1453 1455 1453
1418 1420 1420 1418 1416 1415 1415 1415 1416 1416 1416 1416 1414 1414 1415 1414 1415 1416 1417 1418 1419 1421 1420 1420 1420 1419 1420 1422 1427 1429 1431 1431 1431 1431 1433 1434 1434 1434 1436 1437 1438 1439 1438
1416 1418 1421 1420 1418 1416 1415 1414 1415 1415 1414 1413 1413 1412 1411 1410 1410 1409 1409 1409 1411 1411 1412 1412 1412 1414 1412 1413 1415 1418 1422 1422 1421 1421 1421 1421 1421 1422 1424 1425 1425 1425 1424
1422 1422 1421 1419 1417 1415 1413 1414 1414 1413 1412 1410 1409 1408 1407 1406 1405 1403 1402 1402 1402 1401 1400 1404 1406 1406 1408 1406 1406 1408 1409 1409 1409 1410 1409 1409 1408 1409 1410 1411 1411 1410 1408
1423 1422 1420 1418 1416 1415 1415 1415 1413 1411 1409 1408 1407 1405 1403 1402 1400 1398 1397 1395 1393 1393 1394 1393 1394 1394 1395 1393 1395 1396 1397 1396 1396 1394 1393 1394 1395 1395 1397 1397 1394 1394 1392
1421 1422 1421 1418 1417 1418 1416 1414 1412 1410 1410 1409 1407 1404 1401 1397 1396 1395 1393 1391 1388 1386 1384 1384 1383 1383 1383 1382 1381 1383 1385 1386 1386 1383 1382 1381 1378 1379 1381 1383 1383 1384 1381
1424 1424 1421 1421 1421 1419 1417 1414 1413 1413 1412 1410 1407 1403 1400 1397 1394 1392 1390 1388 1385 1383 1380 1378 1376 1376 1376 1375 1376 1372 1373 1373 1372 1371 1371 1371 1374 1371 1369 1372 1373 1377 1383
1424 1424 1422 1422 1421 1418 1417 1416 1415 1415 1413 1412 1408 1405 1401 1398 1395 1392 1390 1388 1386 1385 1384 1383 1380 1379 1379 1378 1379 1381 1370 1370 1371 1371 1369 1363 1366 1379 1375 1373 1379 1384 1385
1426 1426 1426 1423 1422 1421 1418 1417 1417 1416 1414 1412 1410 1407 1404 1401 1398 1395 1393 1392 1390 1388 1388 1387 1387 1386 1384 1382 1383 1381 1387 1387 1368 1378 1379 1376 1384 1370 1381 1390 1379 1386 1391
1429 1428 1426 1425 1424 1423 1420 1420 1419 1417 1415 1413 1411 1409 1406 1404 1401 1399 1398 1398 1399 1399 1395 1394 1395 1394 1392 1392 1393 1390 1390 1394 1385 1382 1387 1380 1387 1386 1385 1386 1387 1388 1389
1431 1429 1427 1426 1424 1423 1422 1422 1421 1419 1418 1415 1414 1413 1412 1410 1407 1405 1404 1405 1405 1405 1404 1403 1402 1402 1402 1402 1400 1401 1392 1393 1399 1386 1394 1392 1389 1398 1393 1391 1394 1395 1395
Wind_Speed
41 35 29 25 22 19 17 19 21 21 21 18 18 22 24 23 27 27 33 39 40 38 38 39 40 39 40 39 37 36 31 29 26 29 20 18 16 15 15 15 13 15 14
35 37 32 30 27 22 19 19 20 22 20 17 17 26 25 26 26 28 33 40 41 41 38 39 41 39 41 40 34 36 37 34 30 33 29 23 20 20 19 19 18 18 18
41 40 37 35 32 26 23 21 18 18 21 20 16 20 24 24 27 30 41 45 44 39 38 39 44 42 42 42 35 37 38 36 34 30 32 19 14 23 24 24 22 24 25
41 45 43 40 35 29 24 21 19 18 21 21 21 22 23 28 31 35 38 32 39 40 38 38 41 43 40 40 39 36 39 36 37 37 32 26 20 16 16 30 31 30 29
44 48 48 45 37 31 27 24 20 16 21 22 21 23 21 20 22 27 33 38 43 42 40 38 40 44 44 41 37 36 36 37 35 37 34 35 23 16 23 26 30 36 36
47 49 47 43 38 31 27 25 23 18 18 23 22 23 21 20 21 27 29 31 40 42 38 37 40 41 44 36 35 39 39 34 35 35 33 29 31 28 29 24 21 20 22
45 44 46 44 39 34 30 28 25 22 18 24 23 24 24 22 23 26 28 31 40 46 44 37 35 38 42 30 27 30 38 38 35 37 36 34 32 31 32 30 29 29 28
45 50 49 45 40 36 32 29 27 25 21 22 27 28 27 26 24 26 30 36 44 46 48 42 39 36 35 32 36 35 34 39 39 38 39 37 36 34 32 28 25 27 30
43 48 47 42 40 37 32 29 26 25 22 20 26 30 31 30 28 30 33 37 42 48 52 49 48 45 43 41 36 36 37 38 37 40 38 39 40 38 41 35 33 29 30
30 42 43 43 40 36 31 27 23 21 21 20 23 29 33 32 30 32 38 39 40 45 49 50 48 51 46 44 44 42 39 42 40 41 43 42 41 39 41 47 42 42 45
21 31 40 40 38 34 30 26 24 22 21 22 20 26 31 36 34 33 37 39 40 42 44 45 45 47 50 49 49 48 47 46 46 46 47 46 46 52 47 43 46 47 46
12 19 16 19 27 31 31 26 24 22 18 18 19 22 25 33 38 39 36 37 38 38 40 44 49 50 51 51 51 52 52 53 51 50 51 53 51 50 47 48 51 51 50
38 28 20 16 11 9 18 20 22 22 18 16 18 20 23 24 33 37 37 37 37 38 39 40 46 52 52 52 55 55 55 54 55 56 58 59 55 55 55 55 56 57 57
37 36 32 29 23 16 10 8 12 17 22 24 24 23 24 24 25 26 32 40 41 40 42 43 44 46 49 55 57 59 60 60 61 62 64 63 61 61 58 57 59 58 58
34 33 30 27 24 20 16 10 5 7 14 21 27 30 29 29 29 30 30 30 33 40 42 44 45 47 47 51 51 55 60 61 61 60 61 62 63 60 60 61 63 64 62
28 26 23 26 25 22 16 12 7 4 2 6 14 17 24 30 34 34 32 33 35 36 37 41 46 49 52 51 50 51 50 53 55 57 58 58 58 60 59 56 55 55 56
20 21 22 22 22 21 18 17 14 7 3 2 2 15 18 18 25 30 35 40 41 39 40 40 40 44 49 49 46 45 48 50 52 53 52 53 54 54 52 52 53 53 56
21 21 20 20 20 20 20 18 17 15 12 10 6 5 6 12 16 22 28 35 38 43 45 45 43 43 42 42 42 42 44 46 48 51 52 53 53 52 52 50 51 51 52
16 16 16 18 18 19 20 17 16 16 16 17 17 16 14 11 13 13 19 27 33 38 44 46 48 46 43 46 45 45 44 46 48 48 52 56 57 56 54 54 55 56 59
16 17 17 16 15 16 15 14 17 18 19 20 19 19 18 17 16 16 17 19 24 33 35 34 42 44 45 49 50 50 48 50 51 56 57 57 61 57 53 52 52 52 55
14 13 14 17 19 18 17 16 17 18 19 19 19 18 17 16 16 14 16 18 18 18 29 34 34 33 34 40 46 47 48 49 44 44 45 45 48 54 54 43 41 36 32
13 15 17 19 18 18 17 18 19 19 17 17 17 18 18 16 13 12 11 10 8 7 10 14 19 15 12 15 20 39 32 39 43 34 22 10 7 11 13 18 19 18 18
13 13 15 15 15 17 16 16 16 15 16 17 18 20 19 18 16 13 14 14 13 10 10 9 10 11 15 16 17 15 4 4 10 13 12 12 12 18 21 23 20 16 14
13 13 13 15 17 16 16 17 16 15 14 15 17 19 21 22 22 22 22 21 20 20 20 20 19 18 19 20 18 17 18 19 22 20 18 19 16 19 18 14 19 15 12
13 13 16 18 19 17 17 15 15 14 15 16 17 19 21 22 24 26 27 26 26 23 24 25 24 25 25 22 18 19 20 16 20 20 17 19 16 17 18 15 12 11 8
15 17 18 19 20 20 20 19 16 15 15 17 18 19 20 21 23 25 27 26 25 25 25 23 22 21 18 14 13 12 14 12 9 13 14 16 15 13 13 13 11 9 8
Wind_Direction
199 204 206 211 212 212 208 200 198 200 203 202 197 186 183 174 181 187 189 190 188 194 193 189 185 182 181 178 179 181 182 187 185 181 180 188 202 211 222 220 219 217 212
192 197 202 209 213 212 209 200 201 195 202 218 208 192 189 193 195 202 205 197 192 193 192 194 190 189 186 185 183 190 187 193 191 189 194 188 198 215 229 233 238 236 232
193 195 200 208 209 209 209 206 206 200 206 203 207 198 195 203 202 209 210 192 189 191 191 197 194 194 194 191 190 193 195 194 195 198 190 185 206 206 225 232 243 244 242
199 199 201 204 211 211 209 208 205 203 204 205 205 211 200 201 207 208 203 191 188 194 197 201 201 198 196 199 199 197 201 202 197 202 205 199 195 184 222 231 238 241 244
200 199 205 208 207 209 207 206 207 206 202 207 211 212 211 209 200 197 204 206 210 202 201 202 203 207 207 207 202 204 203 208 205 200 205 206 218 219 230 230 234 234 240
199 204 202 202 204 203 207 205 208 204 206 207 211 217 222 207 201 202 204 217 209 199 199 204 206 209 207 211 214 202 208 206 207 210 212 214 211 223 225 230 236 245 249
190 190 195 198 201 201 205 205 208 207 206 203 210 213 217 216 204 207 209 212 209 203 201 206 210 212 214 212 210 214 211 218 220 218 217 218 227 231 236 244 252 260 261
184 194 199 199 202 202 203 205 207 209 208 207 209 212 214 221 217 210 210 206 203 203 203 204 207 204 203 205 213 218 218 224 223 223 227 230 230 237 244 246 256 260 263
186 193 198 198 205 204 204 205 206 209 212 212 212 211 215 219 219 214 210 210 210 209 209 212 213 212 215 218 219 222 225 227 232 230 231 236 238 238 244 252 250 259 264
183 191 194 199 208 206 205 206 209 215 214 212 214 211 217 220 221 220 218 218 219 219 218 220 226 224 224 225 229 229 232 233 232 234 235 240 240 255 260 251 252 249 261
191 190 194 200 205 204 206 208 209 213 216 218 216 214 216 220 221 225 225 225 227 227 228 231 228 228 226 229 232 237 237 234 235 237 241 243 246 249 259 249 248 256 256
115 180 178 187 200 206 206 212 214 219 226 229 229 227 222 220 224 227 230 229 231 235 237 237 234 232 233 234 233 234 237 238 237 241 245 248 249 252 252 252 252 258 261
71 96 117 119 126 183 213 220 225 235 242 238 240 237 238 233 228 230 231 233 233 236 238 239 239 238 239 238 239 240 240 241 243 246 250 253 254 255 255 255 259 262 263
67 72 79 83 91 106 131 192 232 251 255 254 254 252 251 253 249 245 239 235 237 238 240 241 242 245 246 245 246 246 246 250 254 255 257 259 260 260 258 259 260 263 266
62 64 68 75 84 87 91 103 124 221 237 262 261 260 261 263 262 258 256 253 248 243 241 242 244 245 246 247 248 248 250 253 255 257 257 258 259 262 262 263 264 266 266
65 59 55 66 69 74 88 89 103 91 142 257 237 254 265 268 264 262 262 262 259 256 253 250 246 246 247 248 248 251 252 254 257 258 258 258 260 260 261 263 264 266 263
77 72 58 55 61 66 63 61 63 59 54 43 267 244 252 267 256 264 265 260 259 261 259 256 254 254 255 257 256 255 252 254 256 257 257 259 262 266 268 271 270 269 264
57 56 56 56 57 55 56 51 46 42 35 23 1 309 295 267 266 255 254 261 267 265 262 262 262 260 265 266 269 266 259 259 262 263 264 265 269 269 269 270 268 265 264
61 52 47 46 44 41 39 37 34 31 25 17 7 1 353 324 289 282 272 264 256 256 264 266 263 262 266 262 262 262 262 262 262 262 261 260 262 264 263 262 261 261 258
59 46 42 42 42 39 33 24 24 21 21 18 10 1 357 353 345 326 300 292 275 258 249 241 240 242 244 250 254 257 255 254 254 249 248 252 253 252 251 249 247 249 246
55 45 41 43 42 38 33 31 29 28 22 14 8 4 360 358 355 349 341 322 303 268 244 238 235 236 237 243 245 248 251 251 253 244 246 248 250 252 250 252 247 242 229
50 47 47 48 50 45 36 36 33 27 22 18 16 17 16 17 12 5 2 352 330 277 228 216 219 233 251 266 276 250 251 247 242 235 225 216 255 227 223 224 215 175 159
65 57 57 55 50 54 52 53 51 37 29 25 33 36 37 41 46 45 45 49 47 34 35 31 40 37 23 26 31 24 310 230 182 133 145 153 135 106 110 118 120 125 130
71 74 74 72 68 64 65 69 62 58 58 58 54 53 50 52 56 62 64 65 69 72 75 73 71 71 68 65 65 67 70 90 101 92 97 95 94 113 108 108 113 107 103
90 87 82 79 74 68 66 65 69 66 63 63 62 63 64 64 67 69 70 71 71 75 84 85 87 84 79 80 89 91 100 97 101 108 108 104 106 103 111 113 108 111 111
98 91 86 83 81 73 68 62 59 63 67 71 72 72 75 78 81 84 85 87 90 89 87 86 85 86 89 93 91 93 90 92 90 102 100 100 101 89 90 89 86 81 82